www.pogodaiklimat.ru
ПОГОДА в Лоссимуте
Время
(UTC), дата
16 6.11
17 6.11
18 6.11
19 6.11
20 6.11
21 6.11
22 6.11
23 6.11
00 7.11
01 7.11
02 7.11
03 7.11
04 7.11
05 7.11
06 7.11
07 7.11
08 7.11
09 7.11
10 7.11
11 7.11
12 7.11
13 7.11
14 7.11
15 7.11
16 7.11
17 7.11
18 7.11
19 7.11
20 7.11
21 7.11
22 7.11
23 7.11
00 8.11
01 8.11
02 8.11
03 8.11
04 8.11
05 8.11
06 8.11
07 8.11
08 8.11
09 8.11
10 8.11
11 8.11
12 8.11
13 8.11
14 8.11
15 8.11
16 8.11
17 8.11
18 8.11
19 8.11
20 8.11
21 8.11
22 8.11
23 8.11
00 9.11
01 9.11
02 9.11
03 9.11
04 9.11
05 9.11
06 9.11
07 9.11
08 9.11
09 9.11
10 9.11
11 9.11
12 9.11
13 9.11
14 9.11
15 9.11
16 9.11
17 9.11
18 9.11
19 9.11
20 9.11
21 9.11
22 9.11
23 9.11
00 10.11
01 10.11
02 10.11
03 10.11
04 10.11
05 10.11
06 10.11
07 10.11
08 10.11
09 10.11
10 10.11
11 10.11
12 10.11
13 10.11
14 10.11
15 10.11
16 10.11
17 10.11
18 10.11
20 10.11
21 10.11
22 10.11
23 10.11
00 11.11
01 11.11
02 11.11
03 11.11
04 11.11
05 11.11
06 11.11
07 11.11
08 11.11
09 11.11
10 11.11
11 11.11
12 11.11
13 11.11
14 11.11
15 11.11
16 11.11
17 11.11
18 11.11
19 11.11
20 11.11
21 11.11
22 11.11
23 11.11
00 12.11
01 12.11
02 12.11
03 12.11
04 12.11
05 12.11
06 12.11
07 12.11
08 12.11
09 12.11
10 12.11
11 12.11
12 12.11
13 12.11
14 12.11
15 12.11
16 12.11
17 12.11
18 12.11
19 12.11
20 12.11
21 12.11
22 12.11
23 12.11
00 13.11
01 13.11
02 13.11
03 13.11
04 13.11
05 13.11
06 13.11
07 13.11
08 13.11
09 13.11
10 13.11
11 13.11
12 13.11
13 13.11
14 13.11
Ветер
(напр.,м/с)
Видим. Явления Облачность Т
(С)
Тd
(С)
f
(%)
Тe
(С)
Тes
(С)
Комфортность P
(гПа)
Po
(гПа)
Тmin
(С)
Tmax
(С)
R
(мм)
R24
(мм)
S
(см)
В 2 40 км осадки на расстоянии 9/1 540 м
[Cu med, cong Ac trans]
+5.6 +3.0 83 +4 +4 по сезону 1001.2 1000.3
В 3 35 км осадки на расстоянии 9/3 300 м
[Cu Sc Ac trans]
+5.1 +3.2 88 +2 +2 по сезону 1001.0 1000.1
В 3 35 км слаб. ливневой дождь 10/10 600 м
[Cu Sc]
+5.0 +2.7 85 +1 +1 по сезону 1000.9 1000.1 +6.2 0.0
ЮВ 2 30 км в посл. час ливневой дождь 10/5 600 м
[Cu Sc Ac trans]
+4.4 +2.6 88 +2 +2 по сезону 1000.6 999.7
В 3 30 км слаб. дождь 9/9 600 м
[Cu Sc Ac trans]
+4.6 +2.6 87 +1 +1 по сезону 1000.5 999.6
В 3 35 км слаб. дождь 10/10 600 м
[Cu Sc]
+4.9 +2.6 85 +1 +1 по сезону 1000.4 999.6
В 3 20 км слаб. дождь 10/10 600 м
[Cu Sc]
+4.6 +2.9 89 +1 +1 по сезону 1000.3 999.4
ЮВ 4 30 км слаб. дождь 10/9 660 м
[Cu Sc Ac trans]
+4.4 +2.6 88 0 0 по сезону 1000.1 999.2
В 3 35 км в посл. час дождь {ливн. осадки} 10/9 660 м
[Cu Sc Ac trans]
+4.2 +2.4 88 +1 +1 по сезону 999.7 998.9 0.6
ЮВ 3 30 км 10/4 960 м
[Sc Ac As]
+4.1 +2.0 86 +1 +1 по сезону 999.9 999.0
ЮВ 1 30 км 10/3 750 м
[Sc Ac As]
+3.6 +1.8 88 +3 +3 по сезону 999.6 998.8
ЮВ 3 40 км в посл. час ливневой дождь 10/3 1300 м
[Sc Ac trans]
+4.2 +2.2 87 0 0 по сезону 999.6 998.8
В 2 40 км 9/4 1350 м
[Sc Ac trans]
+4.6 +2.5 86 +2 +2 по сезону 999.6 998.7
ЮВ 4 35 км 10/1 1260 м
[Sc Ac As]
+5.1 +2.3 82 +1 +1 по сезону 999.8 999.0
ЮВ 3 10 км осадки на расстоянии {ливн. осадки} 10/8 720 м
[Cu Sc Ac As]
+4.9 +2.8 86 +1 +1 по сезону 1000.3 999.4 +3.3 0.6
В 8-13
{13}
30 км в посл. час ливневой дождь 10/4 600 м
[Cu hum Ac trans]
+7.5 +2.6 71 +3 +3 по сезону 1000.7 999.8
В 9
{14}
35 км осадки на расстоянии 10/6 600 м
[Cu Sc Ac trans]
+7.5 +2.3 70 +2 +2 по сезону 1001.5 1000.6
В 8
{13}
40 км осадки на расстоянии {ливн. осадки} 10/6 600 м
[Cu Sc Ac trans Ci fib]
+7.6 +2.3 69 +3 +3 по сезону 1002.2 1001.3
В 8
{15}
45 км в посл. час ливневой дождь 8/4 600 м
[Cu med, cong Ac As]
+7.7 +2.6 70 +3 +3 по сезону 1002.9 1002.0
В 8 45 км осадки на расстоянии 8/4 600 м
[Cu med, cong Ac As Ci fib]
+7.7 +2.1 68 +3 +3 по сезону 1003.8 1003.0
СВ 8 45 км {ливн. осадки} 8/4 660 м
[Cu med, cong Ac As Ci fib]
+7.7 +1.2 63 +3 +3 по сезону 1004.4 1003.6 0.4
СВ 7 60 км 8/3 1110 м
[Cu hum Ac trans Ci fib]
+7.6 +0.6 61 +3 +4 по сезону 1004.9 1004.0
СВ 7-13
{13}
40 км слаб. ливневой дождь 8/3 900 м
[Cu Sc Ac As Ci fib]
+7.2 +2.5 72 +3 +3 по сезону 1005.5 1004.6
СВ 10
{14}
40 км в посл. час ливневой дождь 5/4 900 м
[Cu med, cong Ac trans Ci fib]
+6.7 +2.2 73 +1 +1 по сезону 1006.2 1005.4
СВ 9 30 км осадки на расстоянии 4/3 900 м
[Cu med, cong Ci fib]
+7.3 +0.4 62 +2 +2 по сезону 1006.8 1005.9
СВ 8
{13}
30 км осадки на расстоянии 3/3 900 м
[Cu med, cong Ci fib]
+7.2 -0.9 56 +3 +3 по сезону 1007.7 1006.8
СВ 9 30 км {ливн. осадки} 3/3 900 м
[Cu med, cong]
+7.2 +0.6 63 +2 +2 по сезону 1008.3 1007.5 +7.7 0.4
СВ 7 40 км 6/6 900 м
[Cu Sc]
+7.3 +0.3 61 +3 +3 по сезону 1009.0 1008.2
В 7
{13}
30 км 3/3 900 м
[Cu med, cong]
+6.7 +1.2 68 +2 +2 по сезону 1009.6 1008.7
СВ 9
{13}
30 км н/о +6.4 +0.8 67 +1 +1 по сезону 1010.0 1009.2
СВ 8 30 км 4/4 900 м
[Cu med, cong]
+6.8 -0.3 61 +2 +2 по сезону 1010.5 1009.6
СВ 7 40 км 5/5 900 м
[Cu Sc]
+6.5 -0.2 62 +2 +2 по сезону 1010.7 1009.9
С 8 40 км 4/4 660 м
[Cu Sc]
+6.0 +1.9 75 +1 +1 по сезону 1011.3 1010.4
С 8 35 км 4/4 900 м
[Cu Sc]
+5.4 -0.6 65 0 0 по сезону 1011.5 1010.7
С 6 30 км 4/4 960 м
[Cu Sc]
+5.2 +0.1 70 0 0 по сезону 1011.5 1010.6
СВ 5
{14}
20 км слаб. ливневой дождь 9/9 540 м
[Cb cap]
+3.8 +1.6 86 -1 -1 по сезону 1011.9 1011.0
С 7 20 км слаб. ливневой дождь 9/9 540 м
[Cb cap]
+4.9 +1.9 81 -1 -1 по сезону 1011.8 1011.0
С 7 30 км в посл. час ливневой дождь 8/8 540 м
[Cb cap]
+4.7 +2.1 83 -1 -1 по сезону 1012.3 1011.4
ЮВ 3 30 км в посл. час ливневой снег 6/6 600 м
[Cb cap Ac cuf]
+2.8 +1.0 88 -1 -1 по сезону 1012.5 1011.7 +2.8 3
СВ 7 40 км в посл. час ливневой дождь 5/4 600 м
[Cu Sc Ac cuf]
+4.8 +1.8 81 -1 -1 по сезону 1012.7 1011.8
В 4 45 км осадки на расстоянии 5/5 360 м
[Cb cap]
+5.4 +1.0 73 +2 +2 по сезону 1013.4 1012.5
Ю 3 50 км осадки на расстоянии {ливн. осадки} 4/4 150 м
[Cb cap]
+3.4 +1.3 86 -1 -1 по сезону 1013.8 1013.0
ЮЗ 5 50 км 4/4 360 м
[Cb cap]
+2.3 +1.4 94 -3 -3 прохладно 1014.2 1013.3
ЮЗ 5 30 км осадки на расстоянии 6/6 360 м
[Cb cap]
+3.3 +2.5 94 -2 -2 по сезону 1014.3 1013.5
ЮЗ 5 30 км осадки на расстоянии {ливн. осадки} 5/5 210 м
[Cb cap]
+4.3 +3.2 93 -1 -0 по сезону 1014.6 1013.7 0.2
З 6 50 км 5/5 240 м
[Cb cap]
+4.1 +2.8 91 -1 -1 по сезону 1014.3 1013.4
ЮЗ 4 50 км 3/3 240 м
[Cb cap]
+5.4 +3.5 88 +1 +2 по сезону 1014.1 1013.2
З 3 50 км осадки на расстоянии 4/4 360 м
[Cb cap Ac trans]
+5.3 +2.6 83 +2 +2 по сезону 1014.2 1013.3
ЮЗ 3 40 км осадки на расстоянии 3/3 360 м
[Cb cap Ci fib]
+3.2 +1.8 91 -1 -1 по сезону 1014.3 1013.4
ЮЗ 5 30 км 1/1 360 м
[Cb cap Ci fib]
+1.3 +0.6 95 -4 -4 прохладно 1014.4 1013.5
ЮЗ 2 30 км 3/3 360 м
[Cb cap]
+0.3 -0.2 96 -4 -4 прохладно 1014.8 1013.9 +6.5 0.2
Ю 3 28 км 1/1 360 м
[Cb cap]
+0.3 -0.2 96 -4 -4 прохладно 1014.2 1013.3
ЮЗ 2 20 км 1/1 600 м
[Sc]
-1.3 -1.8 96 -5 -5 холодно 1014.1 1013.2
Ю 2 30 км 4/4 1260 м
[Sc]
-0.4 -0.7 98 -4 -4 прохладно 1013.9 1013.0
Ю 2 30 км 3/3 30 м
[St]
-1.8 -2.2 97 -6 -6 холодно 1013.5 1012.6
ЮВ 2 25 км 4/1 30 м
[St Ci fib]
-1.0 -1.3 98 -5 -5 холодно 1012.9 1012.0
ЮВ 3 30 км 6/0
[Ci fib]
-0.9 -1.3 97 -6 -6 холодно 1012.8 1011.9
ЮВ 2 25 км 9/0
[Ci fib]
-1.8 -2.2 97 -5 -5 холодно 1012.1 1011.3
ЮВ 2 20 км 9/0
[Ci fib]
-1.2 -1.5 98 -5 -5 холодно 1010.7 1009.8
ЮВ 3 30 км 9/0
[Ci fib]
-2.7 -3.5 94 -8 -8 очень
холодно
1010.0 1009.1
ЮВ 3 35 км 9/0
[Ci fib]
-0.6 -1.3 95 -6 -6 холодно 1009.8 1008.9
ЮВ 4 35 км 9/0
[Ci fib]
+0.4 -0.9 91 -5 -5 холодно 1009.4 1008.5
ЮВ 3 35 км 9/0
[Ci fib]
0.0 -1.1 92 -4 -4 прохладно 1009.2 1008.3 -3.1
ЮВ 3 35 км 9/1 1350 м
[Sc Ci fib]
-0.9 -1.9 93 -5 -5 холодно 1009.0 1008.2
ЮВ 4 40 км 8/3 750 м
[Cu Sc Ci fib]
+0.5 -0.6 92 -5 -5 холодно 1009.2 1008.3
ЮВ 3 40 км 9/3 750 м
[Cu Sc Cs]
+0.8 -0.4 92 -3 -3 прохладно 1009.2 1008.3
В 2 50 км 9/1 750 м
[Cu Sc Cs]
+1.6 +0.1 90 -2 -2 по сезону 1009.0 1008.1
ЮВ 3 40 км 9/3 750 м
[Cu Sc Ac trans Cs]
+2.4 +0.3 86 -1 -1 по сезону 1008.6 1007.7
ЮВ 4 50 км 9/3 750 м
[Cu Sc Cs]
+3.9 +0.9 81 -0 0 по сезону 1008.8 1007.9
ЮВ 3 40 км 9/3 900 м
[Cu Sc Ci sp]
+5.2 +1.7 78 +2 +2 по сезону 1008.9 1008.1
ЮВ 3 50 км 8/1 900 м
[Cu hum Ac trans Ci sp]
+4.1 +0.9 80 0 +1 по сезону 1009.1 1008.2
Ю 2 50 км 8/1 900 м
[Cu hum Ac trans Ci sp]
+3.2 +0.3 81 +1 +1 по сезону 1009.3 1008.5
ЮВ 2 40 км 8/4 1050 м
[Cu Sc Ci sp]
+2.9 +0.7 85 -0 -0 по сезону 1009.9 1009.1
Ю 1 40 км 9/9 1200 м
[Cu Sc]
+1.8 +0.1 88 0 0 по сезону 1010.6 1009.7
ЮЗ 2 50 км в посл. час ливневой дождь 6/6 1500 м
[Sc]
+1.4 -0.3 88 -1 -1 по сезону 1011.3 1010.4 +5.4 0.2
ЮЗ 1 40 км 6/6 1200 м
[Cu Sc]
+1.1 +0.2 94 +1 +1 по сезону 1011.9 1011.0
ЮЗ 3 50 км 6/6 1200 м
[Cu Sc]
+1.1 +0.1 93 -3 -3 прохладно 1012.5 1011.6
ЮЗ 2 50 км 4/4 1350 м
[Sc]
+0.2 -1.3 90 -4 -4 прохладно 1013.1 1012.3
ЮЗ 3 50 км 3/3 1080 м
[Cu hum]
+0.8 -0.7 90 -3 -3 прохладно 1014.0 1013.1
СВ 5 50 км 3/3 1500 м
[Sc]
+5.1 -1.6 62 +1 +1 по сезону 1014.2 1013.4
СВ 6 50 км 1/1 1500 м
[Sc]
+5.3 -2.1 59 +1 +1 по сезону 1015.1 1014.3
СВ 5 50 км 6/6 1410 м
[Sc]
+5.6 -1.2 62 +1 +1 по сезону 1015.4 1014.6
СВ 4 50 км 5/5 1320 м
[Cu Sc]
+5.7 +0.2 68 +2 +2 по сезону 1015.5 1014.6
СВ 6 50 км 6/6 1260 м
[Cu Sc]
+6.3 -0.4 62 +2 +2 по сезону 1015.9 1015.1
В 3 50 км 3/3 1500 м
[Sc]
+5.6 -3.4 52 +3 +3 по сезону 1016.2 1015.3
СВ 5 50 км 1/1 1500 м
[Sc]
+5.8 -3.1 53 +2 +2 по сезону 1016.8 1015.9
ЮЗ 4 50 км ясно -0.6 -1.8 92 -6 -6 холодно 1016.8 1015.9 -0.8
ЮЗ 4 50 км 4/4 1500 м
[Sc]
-0.5 -1.5 93 -6 -6 холодно 1017.6 1016.7
ЮЗ 4 30 км в посл. час ливневой дождь 9/9 1000 м
[Cu Sc]
+1.7 -0.1 88 -3 -3 прохладно 1018.2 1017.3
ЮЗ 4 35 км осадки на расстоянии {ливн. осадки} 6/6 1050 м
[Cu Sc]
+1.0 -0.5 90 -4 -4 прохладно 1018.7 1017.8
ЮЗ 3 35 км 3/3 1050 м
[Cu Sc]
+1.4 0.0 90 -3 -3 прохладно 1018.3 1017.4
ЮЗ 3 30 км 8/8 1050 м
[Cu Sc Cs]
+3.4 +0.5 81 -0 0 по сезону 1017.6 1016.7
ЮЗ 3 35 км {ливн. осадки} 9/8 1050 м
[Cu Sc Cs]
+3.8 +0.7 80 0 0 по сезону 1017.0 1016.2 0.0
Ю 1 35 км осадки на расстоянии 9/9 930 м
[Cu Sc Cs]
+4.2 +0.6 77 +3 +3 по сезону 1016.3 1015.4
Ю 1 35 км осадки на расстоянии 9/9 900 м
[Cu Sc Cs]
+4.4 +0.7 77 +4 +4 по сезону 1015.3 1014.4
В 2 30 км осадки на расстоянии 9/5 900 м
[Cu Sc Cs]
+4.6 +1.2 79 +3 +3 по сезону 1013.8 1012.9
ЮВ 3 30 км 9/5 900 м
[Cu Sc Cs]
+3.5 +0.3 80 0 0 по сезону 1012.6 1011.7
ЮВ 3 30 км 9/4 1500 м
[Sc Cs]
+2.0 -0.3 85 -2 -2 по сезону 1011.6 1010.8
ЮВ 2 30 км 9/3 1500 м
[Sc Cs]
+1.2 -0.5 88 -2 -2 по сезону 1010.6 1009.8 +5.1 0.0
ЮВ 4 30 км 9/8 1500 м
[Sc Cs]
+2.5 -0.4 81 -2 -2 по сезону 1007.6 1006.8
ЮВ 4 30 км 10/9 1350 м
[Sc Cs]
+2.9 -0.4 79 -1 -1 по сезону 1006.4 1005.5
В 5 30 км 10/4 1500 м
[Sc Ac As]
+3.8 -1.2 70 -1 -1 по сезону 1004.1 1003.3
ЮВ 4 35 км 10/4 1350 м
[Sc Ac trans]
+3.7 -0.2 76 -1 -1 по сезону 1002.6 1001.7
В 6 15 км дождь 10/10 720 м
[Sc]
+3.4 +1.2 85 -2 -2 по сезону 1000.9 1000.1 0.4
В 6 30 км в посл. час дождь 10/10 450 м
[Sc]
+3.0 +1.7 91 -3 -3 прохладно 998.9 998.0
В 7 40 км 10/0
[Ac As]
+3.2 +1.7 90 -3 -3 прохладно 996.9 996.0
ЮВ 6 40 км {дождь} 10/5 1500 м
[Sc Ac trans]
+3.4 +1.7 89 -2 -2 по сезону 995.3 994.5
В 5 35 км 10/10 1350 м
[Sc]
+3.6 +2.0 89 -2 -2 по сезону 993.8 993.0
ЮВ 5 40 км в посл. час дождь 10/5 1500 м
[Sc Ac trans]
+4.1 +2.4 89 -1 -1 по сезону 992.7 991.8
ЮВ 5 40 км {дождь} 10/0 2000 м
[Ac As]
+4.4 +2.4 87 -1 -1 по сезону 991.4 990.6 +1.2 0.8
В 4 40 км 9/0
[Ac As]
+3.9 +1.9 87 -0 -0 по сезону 990.8 989.9
В 2 40 км 8/1 450 м
[Cu Sc Ac trans]
+4.4 +2.2 86 +2 +2 по сезону 990.6 989.8
В 3 35 км слаб. дождь 9/1 480 м
[Cu Sc Ac trans]
+5.0 +2.8 86 +2 +2 по сезону 990.3 989.5
ЮВ 2 30 км дождь 9/6 600 м
[Cu Sc Ac trans]
+5.0 +3.1 88 +2 +2 по сезону 990.3 989.4
В 2 35 км в посл. час дождь 10/8 540 м
[Cu Sc Ac trans]
+5.3 +3.1 86 +3 +3 по сезону 990.1 989.2
В 2 35 км {дождь} 9/8 540 м
[Cu Sc Ac As]
+5.3 +3.4 88 +3 +3 по сезону 989.6 988.8 0.2
Ю 1 30 км 9/4 540 м
[Cu Sc Ac trans]
+5.8 +3.9 88 +5 +5 тепло 989.4 988.5
ЮЗ 5 35 км 9/4 360 м
[Cu Sc Ac trans]
+4.8 +3.4 91 0 0 по сезону 989.3 988.5
ЮЗ 4 25 км слаб. дождь 9/6 360 м
[Sc Ac As]
+4.3 +3.2 93 -0 -0 по сезону 989.2 988.4
ЮЗ 4 20 км слаб. дождь 10/6 360 м
[Sc Ac As]
+3.7 +2.7 93 -1 -1 по сезону 989.4 988.6
ЮЗ 4 25 км слаб. дождь 10/8 360 м
[Sc Ac As]
+3.5 +2.7 94 -1 -1 по сезону 989.4 988.6
ЮЗ 3 35 км в посл. час дождь 4/4 660 м
[Sc Ci fib]
+1.6 +0.8 94 -3 -3 прохладно 989.7 988.9 +6.0 0.4
ЮЗ 4 35 км 4/4 1080 м
[Sc Ci fib]
+1.2 +0.7 96 -4 -4 прохладно 989.7 988.9
ЮЗ 3 35 км 8/6 1140 м
[Sc Ci fib]
+1.5 +1.1 97 -3 -3 прохладно 989.8 989.0
З 3 35 км 8/8 1140 м
[Sc Ci fib]
+2.0 +1.7 98 -3 -3 прохладно 989.7 988.9
ЮЗ 4 30 км 9/5 1020 м
[Sc Ac As Ci fib]
+2.5 +2.0 96 -3 -3 прохладно 989.6 988.7
З 5 15 км слаб. дождь 10/10 330 м
[Sc]
+3.3 +2.9 97 -2 -2 по сезону 989.4 988.5
З 3 4000 м сильн. дождь 10/10 270 м
[Sc]
+4.1 +3.8 98 0 0 по сезону 989.0 988.2 3
В 4 6000 м сильн. дождь 10/10 300 м
[Sc]
+5.7 +4.7 93 +2 +2 по сезону 989.2 988.4
С 5 3500 м сильн. дождь 10/10 270 м
[Sc]
+6.8 +6.1 95 +3 +3 по сезону 988.9 988.1
СВ 9
{14}
20 км в посл. час дождь 9/9 270 м
[Cu Sc]
+8.5 +6.2 85 +4 +4 по сезону 989.1 988.3
СВ 11
{15}
20 км в посл. час дождь 9/8 480 м
[Cu Sc Ac As]
+8.6 +6.2 85 +3 +3 по сезону 989.6 988.8
СВ 11
{16}
7000 м ливневой дождь 9/9 360 м
[Cu Sc]
+7.9 +6.9 93 +2 +2 по сезону 990.4 989.5
СВ 12
{17}
20 км в посл. час ливневой дождь 9/9 420 м
[Cu Sc]
+8.3 +6.3 87 +3 +3 по сезону 991.3 990.4 +1.0 12
СВ 13
{17}
7000 м слаб. ливневой дождь 9/9 360 м
[Cu Sc]
+7.7 +6.1 90 +2 +2 по сезону 992.1 991.3
С 12
{18}
17 км в посл. час ливневой дождь 10/10 480 м
[Cu Sc]
+7.7 +5.9 88 +2 +2 по сезону 993.2 992.3
СВ 12
{16}
21 км в посл. час ливневой дождь 9/8 480 м
[Cu Sc Ac trans]
+7.5 +5.1 85 +2 +2 по сезону 994.1 993.2
С 10
{15}
15 км слаб. дождь 10/10 330 м
[Cu Sc]
+7.1 +5.4 89 +1 +1 по сезону 995.0 994.1
С 10
{14}
15 км слаб. ливневой дождь 10/10 330 м
[Cu Sc]
+7.3 +6.0 91 +2 +2 по сезону 995.5 994.6
С 11
{15}
7000 м слаб. ливневой дождь 10/10 300 м
[Cu Sc]
+6.7 +5.6 93 0 0 по сезону 996.2 995.3 1
С 11
{15}
12 км в посл. час дождь 9/9 400 м
[Cu Sc]
+6.7 +5.1 90 +1 +1 по сезону 996.6 995.8
С 9
{14}
21 км 9/9 540 м
[Cu Sc]
+6.8 +3.9 82 +1 +1 по сезону 997.3 996.4
С 9 35 км {дождь} 8/8 540 м
[Cu Sc]
+6.3 +3.4 82 +1 +1 по сезону 998.1 997.2
С 7 35 км 6/6 540 м
[Cu Sc Ac As]
+6.0 +3.5 84 +1 +1 по сезону 998.5 997.6
С 6 30 км 8/8 600 м
[Cu Sc]
+5.9 +3.0 82 +1 +1 по сезону 998.9 998.0
С 6 30 км {ливн. осадки, дождь} 6/6 600 м
[Cu Sc]
+5.7 +2.3 79 +1 +1 по сезону 999.1 998.3 +8.4 1
СЗ 5 30 км 6/6 600 м
[Cu Sc]
+5.6 +2.7 82 +1 +1 по сезону 999.5 998.6
СЗ 5 30 км 8/8 600 м
[Cu Sc]
+5.5 +2.1 79 +1 +1 по сезону 999.5 998.6
СЗ 6 30 км 8/8 600 м
[Cu Sc Ac As]
+5.2 +2.9 85 0 0 по сезону 999.7 998.9
СЗ 7 30 км слаб. ливневой дождь 9/9 480 м
[Cu Sc Ac As]
+5.1 +2.3 82 -0 -0 по сезону 999.8 999.0
СЗ 6 25 км в посл. час ливневой дождь 9/9 400 м
[Cu Sc]
+4.3 +2.5 88 -1 -1 по сезону 999.7 998.9
СЗ 2 25 км в посл. час ливневой дождь 9/9 420 м
[Cu Sc]
+3.4 +0.4 81 0 0 по сезону 999.6 998.8 0.0
ЮЗ 4 30 км 8/8 540 м
[Cu Sc]
+1.5 +0.1 90 -3 -3 прохладно 999.4 998.5
ЮЗ 4 30 км 8/8 500 м
[Cu Sc]
+1.9 +1.0 94 -3 -3 прохладно 999.1 998.2
ЮЗ 5 30 км 8/8 400 м
[Cu Sc]
+2.2 +1.3 94 -4 -4 прохладно 998.8 997.9
З 4 35 км 5/5 540 м
[Cu hum]
+1.4 +0.5 94 -4 -4 прохладно 998.5 997.6
ЮЗ 4 35 км 3/3 540 м
[Cu hum]
+0.5 -0.3 94 -5 -5 холодно 998.2 997.4
ЮЗ 3 35 км 1/1 540 м
[Cu Sc]
-0.1 -0.9 94 -5 -5 холодно 998.1 997.2 -0.3 0.0
ЮЗ 4 40 км 1/1 540 м
[Cu Sc]
-1.3 -1.9 96 -7 -7 холодно 997.6 996.8
З 4 40 км осадки на расстоянии 1/1 360 м
[Cb cap Ac trans]
-2.8 -3.5 95 -9 -9 очень
холодно
997.7 996.8
ЮЗ 2 50 км осадки на расстоянии 1/1 360 м
[Cb cap Ac trans]
-0.9 -1.4 96 -5 -5 холодно 997.6 996.8
Ю 1 50 км осадки на расстоянии 1/1 360 м
[Cb cap Ac trans]
+0.8 -0.4 92 -1 -1 по сезону 997.2 996.4
ЮЗ 2 50 км осадки на расстоянии 3/1 360 м
[Cb cap Ci fib]
+3.2 +1.2 87 +1 +2 по сезону 996.9 996.1
Ю 2 45 км осадки на расстоянии 3/1 360 м
[Cb cap Ci fib]
+4.2 +1.4 82 +1 +2 по сезону 996.6 995.8
З 1 45 км осадки на расстоянии 3/1 420 м
[Cb cap Ci fib]
+4.8 +1.2 77 +4 +5 по сезону 996.6 995.7
С 1 50 км 1/1 360 м
[Cb cap Ci fib]
+4.7 +1.2 78 +3 +4 по сезону 996.5 995.7
Местоположение метеостанции Лоссимут (Великобритания): широта 57.72 долгота -3.32 высота над уровнем моря 6 м.
В архиве по умолчанию представлена погода в Лоссимуте за последнюю неделю. Архивные данные за месяц целиком и за предыдущие месяцы, начиная с января 2011 года, Вы можете получить, выбрав интересующий диапазон дат из раскрывающегося списка и нажав кнопку "Найти!".
*Определитесь, кто Вы:
Внимание! Время в таблицах - всемирное. Для получения местного времени необходимо прибавить поправку, которая равна 0 ч.
Смотрите также архив погоды в соседних городах и на ближайших метеорологических станциях:
Партнеры нашего сайта:      
Пояснения к столбцам:
  • Ветер - указаны скорость ветра в м/с - средняя за 10 мин, порывы в срок и между сроками (в фигурных скобках) и направление, откуда дует ветер: С - северный,
  • СВ - северо-восточный, В - восточный, ЮВ - юго-восточный, Ю - южный, ЮЗ - юго-западный, З - западный, СЗ - северо-западный.
  • Видимость - горизонтальная дальность видимости в метрах или километрах. При видимости от 1 до 10 км при отсутствии осадков обычно наблюдается дымка, при ухудшении видимости до 1 км и менее - туман. В сухую погоду видимость может ухудшаться дымом, пылью или мглою.
  • Явления - указаны атмосферные явления, наблюдавшиеся в срок или в последний час перед сроком; фигурными скобками обозначены явления, наблюдавшиеся между сроками (за 1-3 часа до срока); квадратными скобками обозначены град или гололедные отложения с указанием их диаметра в мм.
  • Облачность - указаны через наклонную черту общая и нижняя облачность в баллах и высота нижней границы облаков в метрах; квадратными скобками обозначены формы облаков: Ci - перистые, Cs - перисто-слоистые, Cc - перисто-кучевые, Ac - высококучевые, As - высокослоистые, Sc - слоисто-кучевые, Ns - слоисто-дождевые, Cu - кучевые, Cb - кучево-дождевые. Подробнее классификацию облаков см. в Атласе облаков (PDF).
  • T - Температура воздуха - температура, измеренная на высоте 2 м над землей.
  • Td - Температура точки росы - температура, при понижении до которой содержащийся в воздухе водяной пар достигнет насыщения.
  • f - Относительная влажность воздуха - влажноcть воздуха, измеренная на высоте 2 м над землей.
  • Te - Эффективная температура - температура, которую ощущает одетый по сезону человек в тени. Характеристика душности погоды. При расчете учитывается влияние влажности воздуха и скорости ветра на теплоощущения человека.
  • Tes - Эффективная температура на солнце - температура, которую ощущает человек, с поправкой на солнечный нагрев. Характеристика знойности погоды. Зависит от высоты солнца над горизонтом, облачности и скорости ветра. Ночью, в пасмурную погоду, а также при ветре 12 м/с и более поправка равна нулю.
  • P - Атмосферное давление - приведенное к уровню моря атмосферное давление.
  • Po - Атмосферное давление - измеренное на уровне метеостанции атмосферное давление.
  • Tmin - Минимальная температура - минимум температуры воздуха на высоте 2 м над землей.
  • Tmax - Максимальная температура - максимум температуры воздуха на высоте 2 м над землей.
  • R - Количество осадков - Количество выпавших осадков за период времени, мм. При наведении курсора мыши на число - период времени, за который выпало указанное количество осадков.
  • R24 - Количество осадков - Количество выпавших осадков за 24 часа, мм.
  • S - Снежный покров - Высота снежного покрова, см. При наведении курсора мыши на число - состояние снежного покрова и степень покрытия местности в баллах.